Погода в Кызласе

Россия / Республика Хакасия     53°07′00″N   89°57′22″E
темп.,
°C
ветер,
м/с
пор.,
м/с
влажн.,
%
обл.,
%
осадки,
мм/ч
давл.,
гПа
погр.,
м
9 марта, вт
вт901:00+1з71681100 1.2 1015991
04:00−1юз7168893 0.3 1017966
07:00−3зюз6177874 0.4 10231049
10:00−5зюз713720 0.0 1027992
13:00−4юз8127126 0.0 10271069
16:00−2юз61075100 0.0 10261097
19:00−7юз348498 0.0 102774
22:00−8з2283100 0.0 102721
10 марта, ср
ср1001:00−10з128288 0.0 102621
04:00−10з128217 0.0 102421
07:00−10юз228656 0.0 102421
10:00−6юз2289100 0.0 1022105
13:00−2ююз229283 0.0 1019214
16:000ю1110020 0.0 101880
19:00−5вюв019057 0.0 101821
22:00−6ссз1188100 0.0 101721
11 марта, чт
чт1101:00−7зсз0090100 0.0 101521
04:00−8юз129291 0.0 101421
07:00−8юз228495 0.0 101421
10:00−3юз2381100 0.0 101495
13:00+1юз4910097 0.0 1014323
16:00+1юз38100100 0.0 1014235
19:00−1з31095100 1.0 1018475
22:00−4зюз71285100 0.4 1021378
12 марта, пт
пт1201:00−6юз51285100 0.4 1023307
04:00−9зюз228468 0.0 102221
07:00−9юз118452 0.0 102021
10:00−5зюз1283100 0.0 101796
13:00−1зюз71272100 0.0 1016765
16:00−2зюз61177100 0.0 1015844
19:00−5сз2381100 0.0 101744
22:00−8з31182100 0.0 1018467
13 марта, сб
сб1301:00−9зюз2687100 0.1 1017263
04:00−10зюз81482100 0.4 10181040
07:00−12зюз81481100 0.5 10241324
10:00−16зюз101772100 0.0 10301411
13:00−15зюз9147050 0.0 10331514
16:00−14зюз8117190 0.0 10341212
19:00−16зюз5118046 0.0 1035339
22:00−19юз33880 0.0 103838